DateTimeUTC,F1_A11,F1_S11,BsB_S11,BsG_S11,BsR_S11,BbsB_S11,BbsG_S11,BbsR_S11,BaB_A11,BaG_A11,BaR_A11,Tu_S11,T_S11,Uu_S11,U_S11,P_S11,T1_A11
2021-07-29T22:00:00Z,00040200,20000000,,,,,,,0000.12,-000.16,-000.01,20.4,26.9,08.4,05.7,0685.9,31.2
2021-07-29T22:01:00Z,00040200,20000000,,,,,,,0000.06,0000.22,-000.18,20.4,26.9,08.4,05.7,0685.9,31.2
2021-07-29T22:02:00Z,00040200,20000000,,,,,,,0000.06,-000.04,0000.13,20.4,26.9,08.2,05.5,0685.9,31.2
2021-07-29T22:03:00Z,00040200,60000000,,,,,,,0000.62,0000.68,0000.48,20.4,26.9,08.1,05.5,0685.9,31.2
2021-07-29T22:04:00Z,00040200,40000000,0005.10,0003.34,0002.14,0000.49,0000.40,0000.50,0000.99,0000.95,0000.82,20.5,26.7,08.5,05.8,0686.8,31.2
2021-07-29T22:05:00Z,00040200,00000000,0004.62,0003.20,0001.99,0000.90,0000.52,0000.43,0001.32,0000.80,0000.81,20.5,26.7,08.5,05.9,0686.9,31.2
2021-07-29T22:06:00Z,00040200,00000000,0004.53,0003.33,0001.84,0001.28,0000.54,0000.29,0000.65,0000.90,0000.29,20.5,26.7,08.6,05.9,0686.9,31.2
2021-07-29T22:07:00Z,00040200,00000000,0005.47,0003.35,0001.98,0001.19,0000.50,0000.22,0000.70,0000.91,0000.56,20.5,26.7,08.6,05.9,0686.9,31.2
2021-07-29T22:08:00Z,00040200,00000000,0005.46,0003.33,0002.08,0000.88,0000.15,0000.61,0000.98,0000.60,0000.92,20.5,26.6,08.5,05.8,0686.9,31.2
2021-07-29T22:09:00Z,00040200,00000000,0004.61,0003.44,0002.08,0000.45,0000.34,0000.71,0001.19,0001.01,0000.61,20.5,26.6,08.7,06.0,0686.9,31.2
2021-07-29T22:10:00Z,00040200,00000000,0005.16,0003.26,0002.38,0000.77,0000.19,0000.42,0000.57,0000.42,0000.52,20.5,26.6,08.6,06.0,0686.9,31.2
2021-07-29T22:11:00Z,00040200,00000000,0004.98,0003.36,0001.95,0000.81,0000.67,0000.37,0001.12,0000.97,0000.71,20.5,26.7,08.6,05.9,0686.9,31.2
2021-07-29T22:12:00Z,00040200,00000000,0004.32,0003.61,0002.00,0000.29,0000.16,0000.47,0000.92,0000.93,0000.52,20.5,26.6,08.6,05.9,0686.9,31.2
2021-07-29T22:13:00Z,00040200,00000000,0004.52,0003.52,0001.88,0000.62,0000.66,0000.44,0000.52,0000.53,0000.55,20.5,26.6,08.6,05.9,0686.9,31.2
2021-07-29T22:14:00Z,00040200,00000000,0004.04,0003.54,0002.01,0000.50,0000.21,0000.12,0000.68,0000.88,0000.60,20.5,26.6,08.5,05.8,0686.9,31.2
2021-07-29T22:15:00Z,00040200,00000000,0005.02,0003.28,0001.84,0001.19,0000.45,0000.24,0000.98,0000.69,0000.35,20.5,26.6,08.5,05.8,0686.9,31.2
2021-07-29T22:16:00Z,00040200,00000000,0004.43,0003.29,0002.02,0000.45,0000.52,0000.38,0000.73,0000.32,0000.66,20.5,26.6,08.4,05.8,0686.9,31.2
2021-07-29T22:17:00Z,00040200,00000000,0004.45,0003.51,0002.24,0000.52,0000.66,0000.51,0000.87,0000.97,0000.58,20.5,26.6,08.3,05.8,0686.9,31.2
2021-07-29T22:18:00Z,00040200,00000000,0004.66,0003.28,0002.04,0000.87,0000.49,0000.48,0000.35,0000.19,0000.58,20.5,26.6,08.3,05.7,0686.9,31.2
2021-07-29T22:19:00Z,00040200,00000000,0004.93,0003.62,0001.48,0000.68,0000.44,0000.32,0000.76,0001.21,0000.48,20.5,26.6,08.3,05.7,0686.9,31.2
2021-07-29T22:20:00Z,00040200,00000000,0005.18,0003.22,0002.44,0000.21,0000.55,0001.01,0000.79,0000.16,0000.16,20.4,26.6,08.2,05.7,0686.9,31.2
2021-07-29T22:21:00Z,00040200,00000000,0005.19,0003.65,0002.10,0000.88,0000.58,0000.46,0000.15,0000.62,0000.09,20.4,26.6,08.1,05.6,0686.9,31.2
2021-07-29T22:22:00Z,00040200,00000000,0005.36,0003.57,0002.11,0001.29,0000.45,0000.64,0001.25,0000.85,0000.97,20.4,26.6,08.0,05.6,0686.9,31.2
2021-07-29T22:23:00Z,00040200,00000000,0004.76,0003.40,0002.06,0000.50,0000.55,0000.31,0000.75,0000.99,0000.43,20.4,26.6,08.0,05.5,0686.9,31.2
2021-07-29T22:24:00Z,00040200,00000000,0005.35,0003.54,0001.97,0000.85,0000.56,0000.51,0000.93,0000.62,0000.50,20.4,26.6,08.0,05.5,0686.9,31.2
2021-07-29T22:25:00Z,00040200,00000000,0004.43,0003.28,0001.91,0000.74,0000.68,0000.41,0000.93,0000.91,0000.83,20.4,26.6,08.1,05.6,0686.9,31.2
2021-07-29T22:26:00Z,00040200,00000000,0004.99,0003.59,0002.23,0000.92,0000.31,0000.67,0000.98,0000.62,0000.40,20.4,26.6,08.0,05.5,0686.8,31.2
2021-07-29T22:27:00Z,00040200,00000000,0004.36,0003.80,0002.41,0000.24,0000.58,0000.24,0000.74,0000.85,0000.72,20.4,26.5,08.1,05.6,0686.8,31.2
2021-07-29T22:28:00Z,00040200,00000000,0004.97,0003.36,0002.04,0001.24,0000.24,0000.39,0000.63,0000.57,0000.58,20.4,26.5,08.1,05.6,0686.8,31.2
2021-07-29T22:29:00Z,00040200,00000000,0005.17,0003.41,0002.00,0001.39,0000.49,0000.66,0001.06,0000.72,0000.55,20.4,26.5,07.9,05.4,0686.8,31.2
2021-07-29T22:30:00Z,00040200,00000000,0005.01,0003.29,0002.03,0000.70,0000.88,0000.05,0000.83,0001.03,0000.69,20.4,26.5,08.0,05.5,0686.9,31.2
2021-07-29T22:31:00Z,00040200,00000000,0004.71,0003.60,0001.96,0000.55,0000.59,0000.17,0000.92,0000.64,0000.34,20.4,26.5,08.0,05.5,0686.9,31.2
2021-07-29T22:32:00Z,00040200,00000000,0004.19,0003.23,0001.87,0000.88,0000.34,0000.60,0001.14,0000.95,0000.78,20.4,26.5,08.1,05.6,0686.9,31.2
2021-07-29T22:33:00Z,00040200,00000000,0004.98,0003.32,0002.02,0001.11,0000.67,-000.02,0000.29,0000.90,0000.18,20.4,26.5,08.1,05.6,0686.9,31.2
2021-07-29T22:34:00Z,00040200,00000000,0004.36,0003.68,0002.10,0000.99,0000.33,0000.47,0000.87,0000.53,0000.88,20.4,26.5,07.9,05.4,0686.9,31.2
2021-07-29T22:35:00Z,00040200,00000000,0004.65,0003.17,0001.92,0000.82,0000.59,0000.48,0001.03,0000.75,0000.58,20.4,26.5,08.0,05.5,0686.9,31.2
2021-07-29T22:36:00Z,00040200,00000000,0005.47,0003.39,0001.85,0001.18,0000.31,0000.36,0000.96,0000.68,0000.54,20.4,26.5,08.0,05.5,0686.9,31.2
2021-07-29T22:37:00Z,00040200,00000000,0004.55,0003.34,0002.28,0000.76,0000.17,0000.55,0000.86,0001.21,0000.95,20.4,26.5,07.9,05.4,0686.9,31.2
2021-07-29T22:38:00Z,00040200,00000000,0003.98,0003.31,0001.87,0000.74,0000.38,0000.16,0001.70,0001.47,0001.15,20.4,26.5,07.9,05.5,0686.9,31.2
2021-07-29T22:39:00Z,00040200,00000000,0004.19,0003.55,0001.88,0000.31,0000.26,0000.55,0001.91,0001.38,0001.29,20.4,26.5,07.8,05.4,0686.9,31.2
2021-07-29T22:40:00Z,00040200,00000000,0004.88,0003.50,0002.15,0001.05,0000.35,0000.67,0001.22,0001.46,0000.79,20.4,26.5,07.9,05.4,0687.0,31.2
2021-07-29T22:41:00Z,00040200,00000000,0005.08,0003.55,0001.94,0000.73,0000.31,0000.44,0000.85,0000.61,0000.39,20.3,26.5,07.8,05.4,0686.9,31.2
2021-07-29T22:42:00Z,00040200,00000000,0004.51,0003.59,0001.93,0000.64,0000.38,0000.36,0001.07,0000.67,0001.03,20.3,26.5,07.9,05.4,0687.0,31.2
2021-07-29T22:43:00Z,00040200,00000000,0004.49,0003.32,0002.01,0001.24,0000.54,0000.43,0001.28,0001.25,0000.58,20.3,26.5,07.9,05.4,0686.9,31.2
2021-07-29T22:44:00Z,00040200,00000000,0004.27,0003.21,0001.83,0000.74,0000.32,0000.24,0000.98,0001.02,0000.69,20.3,26.5,07.8,05.4,0687.0,31.2
2021-07-29T22:45:00Z,00040200,00000000,0004.69,0003.40,0001.53,0000.95,0000.57,0000.27,0001.10,0000.92,0000.86,20.3,26.5,07.8,05.4,0687.0,31.2
2021-07-29T22:46:00Z,00040200,00000000,0004.31,0003.27,0001.77,0000.78,0000.29,0000.36,0000.77,0001.30,0000.73,20.3,26.5,07.7,05.3,0687.0,31.2
2021-07-29T22:47:00Z,00040200,00000000,0004.44,0003.91,0001.97,0000.89,0000.46,0000.87,0001.60,0000.77,0000.88,20.3,26.5,07.7,05.3,0687.0,31.2
2021-07-29T22:48:00Z,00040200,00000000,0004.53,0003.47,0001.85,0000.37,0000.35,0000.46,0005.91,0005.34,0003.82,20.3,26.4,07.6,05.2,0687.0,31.2
2021-07-29T22:49:00Z,00040200,00000000,0005.13,0003.91,0002.34,0001.02,0000.50,0000.82,0014.24,0013.20,0010.18,20.3,26.5,07.4,05.1,0687.0,31.2
2021-07-29T22:50:00Z,00040200,00000000,0005.39,0003.81,0002.50,0001.08,0000.53,0000.81,0023.80,0021.57,0015.99,20.3,26.4,07.4,05.1,0687.0,31.2
2021-07-29T22:51:00Z,00040200,00000000,0005.58,0003.66,0002.10,0001.17,0000.41,0000.83,0026.81,0024.02,0018.91,20.3,26.4,07.4,05.1,0687.0,31.2
2021-07-29T22:52:00Z,00040200,00000000,0004.88,0003.45,0001.99,0000.99,0000.56,0000.63,0013.49,0012.36,0009.56,20.3,26.4,07.5,05.2,0687.0,31.2
2021-07-29T22:53:00Z,00040200,00000000,0003.67,0003.69,0002.03,0000.53,0000.41,0000.58,0003.43,0002.93,0002.60,20.3,26.4,07.9,05.5,0687.0,31.2
2021-07-29T22:54:00Z,00040200,00000000,0004.58,0003.37,0001.78,0001.09,0000.55,0000.43,0001.10,0001.34,0000.86,20.3,26.4,08.1,05.6,0687.0,31.2
2021-07-29T22:55:00Z,00040200,00000000,0004.80,0003.26,0001.62,0000.37,0000.57,0000.33,0001.66,0001.35,0000.97,20.3,26.4,08.0,05.5,0687.0,31.2
2021-07-29T22:56:00Z,00040200,00000000,0004.38,0003.97,0001.50,0001.17,0000.50,0000.32,0000.67,0000.58,0000.41,20.3,26.4,08.0,05.5,0687.0,31.2
2021-07-29T22:57:00Z,00040200,40000000,,,,,,,0000.86,0000.84,0000.76,20.3,26.4,07.2,05.0,0687.0,31.2
2021-07-29T22:58:00Z,00040200,60000000,,,,,,,-000.55,-000.67,-000.17,20.1,26.5,08.0,05.4,0686.0,31.2
2021-07-29T22:59:00Z,00040200,20000000,,,,,,,0000.52,0000.35,0000.07,20.0,26.7,08.1,05.4,0686.0,31.2
